Rochester, NH

7:36 PM EST on November 22, 2017 (GMT -0500)
Skyhaven

Weather History for KDAW - January, 2013

Change the Weather History Date:

Wednesday, January 16, 2013

  Actual Average (KPSM) Record (KPSM)
Temperature  
Mean Temperature 29 °F -  
Max Temperature 30 °F 28 °F 62 °F (1995)
Min Temperature 28 °F 13 °F -11 °F (1994)
Degree Days  
Heating Degree Days 36    
Moisture  
Dew Point 26 °F    
Average Humidity 87    
Maximum Humidity 93    
Minimum Humidity 61    
Precipitation  
Precipitation 0.25 in - - ()
Sea Level Pressure  
Sea Level Pressure 29.95 in    
Wind  
Wind Speed 4 mph (North)    
Max Wind Speed 8 mph    
Max Gust Speed -    
Visibility 4 miles    
Events Fog , Snow    
Averages and records for this station are not official NWS values.
T = Trace of Precipitation, MM = Missing Value Source: NWS Daily Summary

Daily Weather History Graph

Daily Weather History Graph

Search for Another Location

Airport or City:

Trip Planner

Search our weather history database for the weather conditions in past years. The results will help you decide how hot, cold, wet, or windy it might be!

Date:

Astronomy

Jan. 16, 2013 Rise Set
Actual Time 7:12 AM EST 4:35 PM EST
Civil Twilight 6:40 AM EST 5:06 PM EST
Nautical Twilight 6:05 AM EST 5:41 PM EST
Astronomical Twilight 5:31 AM EST 6:15 PM EST
Moon 9:36 AM EST (1/16) 10:35 PM EST (1/16)
Length of Visible Light 10h 25m
Length of Day
9h 22m
Waxing Crescent, 28% of the Moon is Illuminated
Jan 16
Waxing Crescent
Jan 18
First Quarter
Jan 26
Full
Feb 3
Last Quarter
Feb 10
New

Hourly Weather History & Observations

Time (EST) Temp. Windchill Dew Point Humidity Pressure Visibility Wind Dir Wind Speed Gust Speed Precip Events Conditions
12:51 AM 30.9 °F 27.5 °F 19.0 °F 61% 30.23 in 10.0 mi North 3.5 mph - N/A   Clear
1:51 AM 30.9 °F - 19.0 °F 61% 30.22 in 10.0 mi Calm Calm - N/A   Clear
2:51 AM 30.0 °F 25.2 °F 19.9 °F 66% 30.20 in 10.0 mi North 4.6 mph - N/A   Overcast
3:51 AM 30.0 °F 26.5 °F 19.9 °F 66% 30.17 in 10.0 mi North 3.5 mph - N/A   Overcast
4:51 AM 30.9 °F 26.2 °F 21.0 °F 67% 30.13 in 10.0 mi North 4.6 mph - N/A   Overcast
5:51 AM 28.9 °F 23.9 °F 25.0 °F 85% 30.13 in 4.0 mi NNW 4.6 mph - 0.00 in Snow Light Snow
6:03 AM 28.4 °F 24.6 °F 24.8 °F 86% 30.13 in 1.8 mi North 3.5 mph - 0.00 in Snow Light Snow
7:39 AM 28.4 °F 24.6 °F 26.6 °F 93% 30.12 in 0.8 mi NNW 3.5 mph - 0.03 in Snow Light Snow
7:51 AM 28.9 °F - 27.0 °F 92% 30.10 in 0.5 mi Calm Calm - 0.04 in Fog , Snow Snow
8:03 AM 28.4 °F 24.6 °F 26.6 °F 93% 30.10 in 0.5 mi NNW 3.5 mph - 0.01 in Fog , Snow Snow
8:51 AM 28.9 °F 22.8 °F 27.0 °F 92% 30.09 in 1.2 mi North 5.8 mph - 0.03 in Snow Light Snow
9:09 AM 30.2 °F 25.4 °F 26.6 °F 86% 30.06 in 0.8 mi North 4.6 mph - 0.01 in Snow Light Snow
9:25 AM 28.4 °F 22.2 °F 26.6 °F 93% 30.05 in 0.2 mi North 5.8 mph - 0.02 in Fog , Snow Snow
9:38 AM 30.2 °F 25.4 °F 26.6 °F 86% 30.05 in 0.5 mi North 4.6 mph - 0.03 in Fog , Snow Snow
9:51 AM 30.0 °F 24.1 °F 27.0 °F 88% 30.04 in 0.5 mi North 5.8 mph - 0.04 in Fog , Snow Snow
10:09 AM 30.2 °F 24.3 °F 28.4 °F 93% 30.02 in 0.5 mi North 5.8 mph - 0.01 in Fog , Snow Snow
10:26 AM 28.4 °F 20.4 °F 26.6 °F 93% 30.00 in 0.5 mi North 8.1 mph - 0.02 in Fog , Snow Snow
10:51 AM 28.9 °F 21.1 °F 27.0 °F 92% 30.01 in 0.8 mi North 8.1 mph - 0.03 in Snow Light Snow
11:42 AM 30.2 °F 24.3 °F 26.6 °F 86% 29.94 in 1.0 mi North 5.8 mph - 0.01 in Snow Light Snow
11:51 AM 30.0 °F 25.2 °F 27.0 °F 88% 29.94 in 1.2 mi North 4.6 mph - 0.01 in Snow Light Snow
12:14 PM 30.2 °F 22.6 °F 26.6 °F 86% 29.93 in 0.8 mi North 8.1 mph - 0.01 in Snow Light Snow
12:26 PM 30.2 °F 24.3 °F 26.6 °F 86% 29.93 in 1.0 mi North 5.8 mph - 0.01 in Snow Light Snow
12:51 PM 30.0 °F 23.2 °F 27.0 °F 88% 29.92 in 0.5 mi North 6.9 mph - 0.02 in Fog , Snow Snow
1:02 PM 30.2 °F 25.4 °F 26.6 °F 86% 29.91 in 0.5 mi North 4.6 mph - 0.01 in Fog , Snow Snow
1:47 PM 30.2 °F 24.3 °F 28.4 °F 93% 29.89 in 0.8 mi North 5.8 mph - 0.05 in Snow Light Snow
1:51 PM 30.0 °F 25.2 °F 28.0 °F 92% 29.89 in 0.5 mi North 4.6 mph - 0.05 in Fog , Snow Snow
2:14 PM 30.2 °F 25.4 °F 28.4 °F 93% 29.83 in 1.0 mi Variable 4.6 mph - 0.01 in Snow Light Snow
2:29 PM 30.2 °F 24.3 °F 28.4 °F 93% 29.85 in 2.0 mi North 5.8 mph - 0.01 in Snow Light Snow
2:39 PM 30.2 °F 25.4 °F 26.6 °F 86% 29.84 in 2.0 mi North 4.6 mph - 0.01 in Snow Light Snow
2:49 PM 30.2 °F 22.6 °F 26.6 °F 86% 29.85 in 3.0 mi North 8.1 mph - 0.01 in Snow Light Snow
2:51 PM 30.0 °F 24.1 °F 27.0 °F 88% 29.86 in 3.0 mi North 5.8 mph - 0.01 in Snow Light Snow
3:19 PM 30.2 °F 25.4 °F 28.4 °F 93% 29.84 in 2.0 mi North 4.6 mph - 0.00 in Snow Light Snow
3:51 PM 30.0 °F 23.2 °F 28.0 °F 92% 29.84 in 1.5 mi North 6.9 mph - 0.01 in Snow Light Snow
3:58 PM 30.2 °F 24.3 °F 28.4 °F 93% 29.83 in 1.8 mi North 5.8 mph - 0.00 in Snow Light Snow
4:45 PM 30.2 °F 24.3 °F 28.4 °F 93% 29.84 in 3.0 mi NNW 5.8 mph - 0.01 in Snow Light Snow
4:51 PM 30.0 °F 25.2 °F 28.0 °F 92% 29.84 in 3.0 mi NNW 4.6 mph - 0.01 in Snow Light Snow
5:24 PM 30.2 °F 26.7 °F 28.4 °F 93% 29.82 in 7.0 mi North 3.5 mph - 0.00 in Snow Light Snow
5:41 PM 30.2 °F 22.6 °F 26.6 °F 86% 29.83 in 9.0 mi NNW 8.1 mph - 0.00 in Snow Light Snow
5:51 PM 30.0 °F 24.1 °F 27.0 °F 88% 29.83 in 9.0 mi North 5.8 mph - 0.00 in   Overcast
6:51 PM 30.0 °F - 28.0 °F 92% 29.81 in 5.0 mi Calm Calm - 0.00 in Snow Light Snow
7:29 PM 28.4 °F 23.3 °F 26.6 °F 93% 29.81 in 10.0 mi NW 4.6 mph - 0.00 in   Mostly Cloudy
7:51 PM 28.9 °F 21.9 °F 27.0 °F 92% 29.81 in 10.0 mi NW 6.9 mph - 0.00 in   Overcast
8:51 PM 30.0 °F - 27.0 °F 88% 29.82 in 10.0 mi Calm Calm - N/A   Overcast
8:58 PM 30.2 °F - 26.6 °F 86% 29.81 in 10.0 mi Calm Calm - N/A   Overcast
9:51 PM 28.9 °F - 27.0 °F 92% 29.80 in 10.0 mi Calm Calm - N/A   Overcast
10:51 PM 30.0 °F - 28.0 °F 92% 29.79 in 8.0 mi Calm Calm - N/A   Overcast
11:51 PM 30.0 °F - 28.0 °F 92% 29.79 in 9.0 mi Calm Calm - N/A   Overcast